Cloud_Cover
5 11 6 9 16 37 62 51 100 100 100 100 99 100 91 6 1 0 0 0 0 0 0 0 0 0 0 0 0 0 0 0 0 0 0 0 0 0 0 0 0 4 15 53 4
2 6 5 8 14 32 100 19 81 70 91 78 98 85 5 13 18 0 0 0 0 0 0 0 0 0 0 0 0 0 0 0 0 0 0 0 0 0 0 0 0 2 18 28 2
4 2 6 5 4 40 58 28 28 26 28 65 56 10 2 1 1 0 0 0 0 0 0 0 0 0 0 0 0 0 0 0 0 0 0 0 0 0 0 0 0 2 18 4 0
1 0 6 15 35 100 100 51 20 15 17 18 21 12 0 0 0 0 0 0 0 0 0 0 0 0 0 0 0 0 0 0 0 0 0 0 0 0 0 0 0 0 57 4 0
2 1 17 18 26 5 87 20 19 12 12 17 46 3 0 0 0 0 0 0 0 0 0 0 0 0 0 0 0 0 0 0 0 0 0 0 0 0 0 0 0 0 0 0 0
26 24 87 37 43 38 100 23 4 9 13 37 100 0 0 0 0 0 0 0 0 0 0 0 0 0 0 0 0 0 0 0 0 0 0 0 0 0 0 0 0 0 0 0 0
20 21 31 29 20 70 57 1 0 8 10 98 68 0 0 0 0 0 0 0 0 0 0 0 0 0 0 0 0 0 0 0 0 0 0 0 0 0 0 0 0 0 0 0 0
4 17 24 15 20 16 16 3 0 1 0 0 0 0 0 0 0 0 0 0 0 0 0 0 0 0 0 0 0 0 0 0 0 0 0 0 0 0 0 0 0 0 0 0 0
0 0 3 12 12 3 0 0 0 0 0 0 0 0 0 0 0 0 0 0 0 0 0 0 0 0 0 0 0 0 0 0 0 0 0 1 3 0 0 0 0 0 4 3 0
0 0 0 0 1 0 0 0 0 0 2 0 0 0 0 0 0 0 0 0 0 0 0 0 3 5 0 2 3 0 0 0 0 0 4 4 1 0 0 0 0 0 0 62 5
0 0 0 0 0 0 3 0 0 0 0 0 0 0 0 0 0 0 0 0 0 0 0 0 1 4 0 3 5 6 5 5 4 23 66 5 69 5 0 0 0 0 0 36 69
0 0 0 0 0 0 2 0 0 0 0 0 0 0 0 0 0 0 0 0 0 0 0 0 0 0 12 16 75 35 38 2 0 5 84 67 10 0 0 0 0 0 0 0 79
0 0 0 0 0 0 0 0 0 0 0 0 0 0 0 0 0 0 10 5 2 4 4 5 0 0 3 10 99 60 62 60 37 8 42 15 0 0 0 0 0 0 0 0 0
0 0 0 0 0 0 0 0 0 0 0 0 0 0 0 0 0 0 5 7 6 16 10 2 0 0 10 5 14 7 8 58 88 48 60 4 3 0 0 0 0 0 0 0 0
0 0 0 0 0 0 0 0 0 0 0 0 0 0 0 0 0 0 98 11 90 16 11 0 1 5 99 61 8 5 10 7 59 9 88 56 43 16 93 0 0 0 0 0 0
0 0 0 0 0 0 0 0 0 0 1 2 0 0 1 5 0 0 1 49 33 43 0 0 0 3 5 38 5 66 91 100 69 38 83 100 5 1 11 2 0 0 0 0 0
0 0 1 0 0 0 0 0 0 0 0 0 1 5 5 3 1 5 4 2 3 48 9 0 0 39 71 68 100 100 100 94 53 20 32 100 2 92 100 4 1 11 2 0 0
0 0 0 0 0 0 0 0 0 0 0 0 0 5 5 0 0 0 0 0 5 56 64 67 100 100 99 66 72 99 100 100 100 57 7 14 12 100 20 4 4 0 3 0 0
0 0 0 0 0 0 0 0 0 0 0 2 5 3 28 31 0 5 0 0 2 4 60 94 97 53 92 30 59 66 100 98 100 99 100 87 10 5 4 0 5 0 0 0 0
0 0 0 0 0 0 0 0 0 0 0 4 63 34 5 11 4 4 2 4 5 4 20 44 100 54 58 97 100 95 100 100 100 100 96 5 5 100 17 5 5 47 5 4 1
0 0 0 0 0 0 0 0 0 0 0 5 97 81 0 0 3 5 5 4 4 5 30 82 100 89 100 99 100 100 100 100 100 100 83 56 10 34 52 85 97 24 41 28 5
0 0 0 0 0 0 0 0 0 0 4 100 100 100 1 0 5 5 5 5 6 95 84 100 100 99 100 100 100 100 100 100 100 90 100 91 75 100 93 100 61 100 78 5 99
0 0 0 0 0 0 0 0 0 0 0 0 8 15 0 5 30 5 5 5 6 34 100 98 100 100 73 100 100 100 100 100 100 100 100 89 92 100 100 100 100 64 97 53 12
0 0 0 0 0 0 0 0 0 0 0 0 41 2 3 46 5 14 0 16 100 96 85 100 100 89 91 97 100 97 100 100 100 100 64 10 99 100 100 96 69 43 95 100 44
1 1 0 0 0 0 0 0 0 0 0 0 0 4 11 100 64 0 2 22 20 55 100 100 100 100 100 100 100 100 94 95 100 42 100 92 100 100 100 6 23 100 100 97 12
9 9 0 0 0 0 0 0 0 0 0 0 1 61 100 90 2 1 0 83 77 100 100 100 100 100 100 100 100 100 100 100 100 100 100 100 100 98 18 100 100 100 97 89 61
84 11 5 0 0 0 0 0 0 0 0 0 0 15 7 4 0 0 4 56 100 100 100 100 100 100 100 100 27 100 100 100 100 90 100 100 99 100 100 100 100 100 100 26 49